Simultaneous Nadir Overpasses (SNOs) Predictions

Prediction of SNOs between NOAA-19 and NPP Satellite Orbit:

Table of predicted SNOs for the next 14.0 days since TLE Epoch: 11/2/2012
Index Date (NOAA-19) Time (NOAA-19) NOAA-19 Lat,Lon Date (NPP) Time (NPP) NPP Lat,Lon Distance(km) Time Diff (sec)
1 11/03/2012 01:47:51 -80.78, -76.71 11/03/2012 01:49:04 -80.79, -76.82 2.07 73
2 11/03/2012 02:38:47 80.76, 90.97 11/03/2012 02:39:48 80.77, 90.81 2.91 61
3 11/03/2012 03:29:54 -80.75,-101.54 11/03/2012 03:30:32 -80.75,-101.52 0.33 38
4 11/03/2012 04:20:50 80.73, 66.14 11/03/2012 04:21:16 80.73, 66.11 0.54 26
5 11/03/2012 05:11:57 -80.72,-126.37 11/03/2012 05:12:00 -80.71,-126.23 2.70 3
6 11/03/2012 06:02:53 80.69, 41.30 11/03/2012 06:02:44 80.69, 41.40 1.85 9
7 11/03/2012 06:53:57 -80.62,-150.18 11/03/2012 06:53:26 -80.62,-150.26 1.44 31
8 11/03/2012 07:44:53 80.60, 17.49 11/03/2012 07:44:10 80.60, 17.37 2.30 43
9 11/03/2012 08:36:00 -80.58,-175.04 11/03/2012 08:34:54 -80.58,-174.98 0.98 66
10 11/15/2012 09:50:05 -80.81, 162.12 11/15/2012 09:51:19 -80.81, 162.19 1.35 74
11 11/15/2012 10:41:01 80.77, -29.77 11/15/2012 10:42:02 80.77, -29.86 1.63 61
12 11/15/2012 11:32:07 -80.77, 137.63 11/15/2012 11:32:47 -80.77, 137.50 2.41 40
13 11/15/2012 12:23:05 80.76, -54.96 11/15/2012 12:23:31 80.76, -54.90 1.15 26
14 11/15/2012 13:14:09 -80.71, 113.12 11/15/2012 13:14:14 -80.71, 113.14 0.44 5
15 11/15/2012 14:05:05 80.67, -78.77 11/15/2012 14:04:57 80.67, -78.91 2.60
